User: anonymous   Login
Location: Huntsville
(41.2590°N, 111.7678°W)
Time: 21:24:19
(UTC+00:00)
Language:

Altair - Orbit

View from above orbital plane
View from above orbital plane
View from above satellite
View from above satellite

Ground track
Ground track

The orbit data is extracted from the following two-line orbital elements,

1 00050U 60009B   21163.84799953 -.00000094  00000-0 -87116-4 0  9999
2 00050  47.2323  82.7241 0114356 319.8071  39.4305 12.20117121714229
Epoch (UTC): 12 June 2021 20:21:07
Eccentricity: 0.0114356
inclination: 47.2323°
perigee height: 1501 km
apogee height: 1683 km
right ascension of ascending node: 82.7241°
argument of perigee: 319.8071°
revolutions per day: 12.20117121
mean anomaly at epoch: 39.4305°
orbit number at epoch: 71422

The dashed part of the orbit path shows where the satellite is in the earth's shadow,  

DLR